Location: Estes Park
(40.3770°N, 105.5210°W)
Time: 22:18:17
(UTC-07:00)

Vanguard 2 - Visible Passes

Search period start: 12 December 2017 00:00
Search period end: 22 December 2017 00:00
Orbit: 553 x 2939 km, 32.9° (Epoch: 12 December)

Date Brightness Start Highest point End Pass type
(mag) Time Alt. Az. Time Alt. Az. Time Alt. Az.
12 Dec 8.4 18:00:13 10° WSW 18:04:35 32° S 18:07:14 16° SE visible
13 Dec 8.6 18:18:19 10° WSW 18:22:30 29° S 18:24:31 19° SE visible
14 Dec 8.7 18:36:31 10° WSW 18:40:24 25° SSW 18:41:50 20° SSE visible
15 Dec 9.0 18:54:53 10° WSW 18:58:14 20° SSW 18:59:12 18° S visible
16 Dec 8.9 17:02:44 10° WSW 17:08:35 37° S 17:12:43 10° ESE visible
16 Dec 9.4 19:13:34 10° WSW 19:16:01 14° SSW 19:16:37 14° SSW visible
17 Dec 9.1 17:20:56 10° WSW 17:26:29 33° SSW 17:30:29 10° SE visible
18 Dec 9.3 17:39:14 10° WSW 17:44:19 27° SSW 17:48:07 10° SE visible
19 Dec 9.6 17:57:41 10° WSW 18:02:05 21° SSW 18:05:31 10° SSE visible
20 Dec 9.8 18:16:28 10° WSW 18:19:45 16° SSW 18:22:31 10° S visible
21 Dec 10.4 18:36:34 10° SW 18:37:21 10° SW 18:38:06 10° SSW visible
